Hourly Data Report for October 28, 2019

All times are specified in Local Standard Time (LST). Add 1 hour to adjust for Daylight Saving Time where and when it is observed.

SEPT-ILES
QUEBEC
Current Station Operator: ECCC - MSC

50°13'00.000" N
66°15'00.000" W
52.60 m
7047914
71279
XZV

Download Data

Hourly Data (October 2019)
Hourly Data Report for October 28, 2019
TIME Temp Definition
°C
Dew Point Definition
°C
Rel Hum Definition
%
Wind Dir Definition
10's deg

Wind Spd Definition
km/h
Visibility Definition
km
Stn Press Definition
kPa
Hmdx Definition


Wind Chill Definition


Weather Definition


00:00 0.2 -3.4 76 6 5   101.54     LegendNANA
01:00 0.5 -3.3 76 5 6   101.56     LegendNANA
02:00 1.0 -2.8 75 4 9   101.57     LegendNANA
03:00 2.6 -1.7 73 8 11   101.58     LegendNANA
04:00 2.3 -2.1 72 7 9   101.62     LegendNANA
05:00 2.3 -2.3 72 6 10   101.64     LegendNANA
06:00 2.3 -1.9 74 7 10   101.70     LegendNANA
07:00 2.4 -0.9 79 7 9   101.77     LegendNANA
08:00 3.0 -0.7 77 7 11   101.79     LegendNANA
09:00 4.0 0.0 75 8 14   101.82     LegendNANA
10:00 5.0 0.9 75 10 13   101.86     LegendNANA
11:00 5.3 1.3 75 9 17   101.85     LegendNANA
12:00 5.4 1.8 78 9 13   101.85     LegendNANA
13:00 5.5 0.7 71 12 12   101.81     LegendNANA
14:00 5.4 0.5 71 12 12   101.80     LegendNANA
15:00 5.2 0.3 70 11 9   101.85     LegendNANA
16:00 5.1 0.2 71 11 9   101.85     LegendNANA
17:00 5.0 0.5 73 11 7   101.90     LegendNANA
18:00 5.0 0.8 74 10 5   101.92     LegendNANA
19:00 5.1 1.5 77 10 4   101.94     LegendNANA
20:00 4.9 1.9 81 8 4   101.96     LegendNANA
21:00 5.1 2.7 85 9 4   101.98     LegendNANA
22:00 4.7 2.4 85 7 5   102.00     LegendNANA
23:00 4.6 2.4 86 7 5   101.99     LegendNANA

Notes on Data Quality.

Legend

  • E = Estimated
  • M = Missing
  • NA = Not Available
Date modified: